Time,TemperatureF,DewpointF,PressureIn,WindDirection,WindDirectionDegrees,WindSpeedMPH,WindSpeedGustMPH,Humidity,HourlyPrecipIn,Conditions,Clouds,dailyrainin,SoftwareType,DateUTC
2013-07-08 00:02:00,54.6,52.0,29.86,SW,214,0.0,0.0,91,0.00,,,0.00,WUHU216DAVISVP2,2013-07-08 07:02:00,
2013-07-08 00:07:00,54.6,52.0,29.86,SW,214,0.0,0.0,91,0.00,,,0.00,WUHU216DAVISVP2,2013-07-08 07:07:00,
2013-07-08 00:12:00,54.6,52.0,29.86,SW,214,0.0,2.0,91,0.00,,,0.00,WUHU216DAVISVP2,2013-07-08 07:12:00,
2013-07-08 00:17:00,54.5,51.9,29.86,SW,214,0.0,2.0,91,0.00,,,0.00,WUHU216DAVISVP2,2013-07-08 07:17:00,
2013-07-08 00:22:00,54.5,51.9,29.86,SW,214,0.0,2.0,91,0.00,,,0.00,WUHU216DAVISVP2,2013-07-08 07:22:00,
2013-07-08 00:27:00,54.5,51.9,29.86,SW,214,0.0,2.0,91,0.00,,,0.00,WUHU216DAVISVP2,2013-07-08 07:27:00,
2013-07-08 00:32:00,54.5,51.9,29.86,SW,214,0.0,1.0,91,0.00,,,0.00,WUHU216DAVISVP2,2013-07-08 07:32:00,
2013-07-08 00:37:00,54.6,52.0,29.86,SW,214,0.0,1.0,91,0.00,,,0.00,WUHU216DAVISVP2,2013-07-08 07:37:00,
2013-07-08 00:42:00,54.6,51.7,29.86,SW,214,0.0,1.0,90,0.00,,,0.00,WUHU216DAVISVP2,2013-07-08 07:42:00,
2013-07-08 00:47:00,54.6,51.7,29.86,SW,214,0.0,1.0,90,0.00,,,0.00,WUHU216DAVISVP2,2013-07-08 07:47:00,
2013-07-08 00:52:00,54.6,51.7,29.86,SW,214,0.0,2.0,90,0.00,,,0.00,WUHU216DAVISVP2,2013-07-08 07:52:00,
2013-07-08 00:57:00,54.5,51.6,29.86,SW,214,1.0,2.0,90,0.00,,,0.00,WUHU216DAVISVP2,2013-07-08 07:57:00,
2013-07-08 01:02:00,54.5,51.3,29.86,SSW,213,0.0,2.0,89,0.00,,,0.00,WUHU216DAVISVP2,2013-07-08 08:02:00,
2013-07-08 01:07:00,54.4,51.5,29.86,SSW,213,0.0,2.0,90,0.00,,,0.00,WUHU216DAVISVP2,2013-07-08 08:07:00,
2013-07-08 01:12:00,54.2,51.3,29.86,SSW,213,0.0,2.0,90,0.00,,,0.00,WUHU216DAVISVP2,2013-07-08 08:12:00,
2013-07-08 01:17:00,54.1,51.2,29.86,SSW,213,0.0,2.0,90,0.00,,,0.00,WUHU216DAVISVP2,2013-07-08 08:17:00,
2013-07-08 01:22:00,54.1,51.2,29.86,SSW,213,0.0,2.0,90,0.00,,,0.00,WUHU216DAVISVP2,2013-07-08 08:22:00,
2013-07-08 01:27:00,54.0,51.4,29.86,SSW,213,0.0,1.0,91,0.00,,,0.00,WUHU216DAVISVP2,2013-07-08 08:27:00,
2013-07-08 01:32:00,54.1,51.5,29.86,SSW,213,2.0,2.0,91,0.00,,,0.00,WUHU216DAVISVP2,2013-07-08 08:32:00,
2013-07-08 01:37:00,54.1,51.5,29.86,SSW,213,0.0,2.0,91,0.00,,,0.00,WUHU216DAVISVP2,2013-07-08 08:37:00,
2013-07-08 01:42:00,54.2,51.6,29.86,SSW,192,0.0,2.0,91,0.00,,,0.00,WUHU216DAVISVP2,2013-07-08 08:42:00,
2013-07-08 01:47:00,54.2,51.3,29.86,SSW,197,2.0,2.0,90,0.00,,,0.00,WUHU216DAVISVP2,2013-07-08 08:47:00,
2013-07-08 01:52:00,54.1,51.2,29.86,South,188,0.0,2.0,90,0.00,,,0.00,WUHU216DAVISVP2,2013-07-08 08:52:00,
2013-07-08 01:57:00,53.9,51.0,29.86,SSW,200,0.0,2.0,90,0.00,,,0.00,WUHU216DAVISVP2,2013-07-08 08:57:00,
2013-07-08 02:02:00,53.9,51.3,29.86,SSW,200,0.0,2.0,91,0.00,,,0.00,WUHU216DAVISVP2,2013-07-08 09:02:00,
2013-07-08 02:07:00,53.8,51.2,29.86,SSW,198,0.0,2.0,91,0.00,,,0.00,WUHU216DAVISVP2,2013-07-08 09:07:00,
2013-07-08 02:12:00,53.8,51.2,29.86,SSW,198,0.0,2.0,91,0.00,,,0.00,WUHU216DAVISVP2,2013-07-08 09:12:00,
2013-07-08 02:17:00,53.7,51.1,29.86,SW,214,1.0,3.0,91,0.00,,,0.00,WUHU216DAVISVP2,2013-07-08 09:17:00,
2013-07-08 02:22:00,53.6,51.0,29.86,SW,215,1.0,3.0,91,0.00,,,0.00,WUHU216DAVISVP2,2013-07-08 09:22:00,
2013-07-08 02:27:00,53.6,51.0,29.86,SW,215,0.0,3.0,91,0.00,,,0.00,WUHU216DAVISVP2,2013-07-08 09:27:00,
2013-07-08 02:32:00,53.6,51.0,29.86,SW,215,0.0,3.0,91,0.00,,,0.00,WUHU216DAVISVP2,2013-07-08 09:32:00,
2013-07-08 02:37:00,53.6,51.0,29.86,SW,215,0.0,2.0,91,0.00,,,0.00,WUHU216DAVISVP2,2013-07-08 09:37:00,
2013-07-08 02:42:00,53.6,51.0,29.86,SW,215,0.0,1.0,91,0.00,,,0.00,WUHU216DAVISVP2,2013-07-08 09:42:00,
2013-07-08 02:47:00,53.6,51.0,29.86,SW,215,0.0,0.0,91,0.00,,,0.00,WUHU216DAVISVP2,2013-07-08 09:47:00,
2013-07-08 02:52:00,53.6,51.0,29.86,SW,215,0.0,0.0,91,0.00,,,0.00,WUHU216DAVISVP2,2013-07-08 09:52:00,
2013-07-08 02:57:00,53.7,51.1,29.86,SW,215,0.0,0.0,91,0.00,,,0.00,WUHU216DAVISVP2,2013-07-08 09:57:00,
2013-07-08 03:02:00,53.7,51.1,29.86,SW,215,0.0,0.0,91,0.00,,,0.00,WUHU216DAVISVP2,2013-07-08 10:02:00,
2013-07-08 03:07:00,53.7,51.1,29.86,SSW,196,0.0,3.0,91,0.00,,,0.00,WUHU216DAVISVP2,2013-07-08 10:07:00,
2013-07-08 03:12:00,53.6,51.0,29.86,SSW,196,0.0,3.0,91,0.00,,,0.00,WUHU216DAVISVP2,2013-07-08 10:12:00,
2013-07-08 03:17:00,53.6,51.0,29.86,SSW,196,0.0,3.0,91,0.00,,,0.00,WUHU216DAVISVP2,2013-07-08 10:17:00,
2013-07-08 03:22:00,53.5,50.9,29.86,SSW,196,0.0,3.0,91,0.00,,,0.00,WUHU216DAVISVP2,2013-07-08 10:22:00,
2013-07-08 03:27:00,53.4,50.8,29.86,SSW,194,0.0,2.0,91,0.00,,,0.00,WUHU216DAVISVP2,2013-07-08 10:27:00,
2013-07-08 03:32:00,53.4,50.8,29.86,SSW,194,0.0,2.0,91,0.00,,,0.00,WUHU216DAVISVP2,2013-07-08 10:32:00,
2013-07-08 03:37:00,53.2,50.6,29.86,SSW,194,1.0,2.0,91,0.00,,,0.00,WUHU216DAVISVP2,2013-07-08 10:37:00,
2013-07-08 03:42:00,53.1,50.5,29.86,SSW,194,1.0,2.0,91,0.00,,,0.00,WUHU216DAVISVP2,2013-07-08 10:42:00,
2013-07-08 03:47:00,52.9,50.6,29.86,SSW,194,1.0,3.0,92,0.00,,,0.00,WUHU216DAVISVP2,2013-07-08 10:47:00,
2013-07-08 03:52:00,52.9,50.6,29.86,SSW,194,0.0,3.0,92,0.00,,,0.00,WUHU216DAVISVP2,2013-07-08 10:52:00,
2013-07-08 03:57:00,52.8,50.5,29.86,SSW,194,0.0,3.0,92,0.00,,,0.00,WUHU216DAVISVP2,2013-07-08 10:57:00,
2013-07-08 04:02:00,52.8,50.5,29.86,SSW,194,0.0,2.0,92,0.00,,,0.00,WUHU216DAVISVP2,2013-07-08 11:02:00,
2013-07-08 04:07:00,52.8,50.5,29.87,SSW,194,0.0,1.0,92,0.00,,,0.00,WUHU216DAVISVP2,2013-07-08 11:07:00,
2013-07-08 04:12:00,52.8,50.5,29.87,SSW,196,0.0,1.0,92,0.00,,,0.00,WUHU216DAVISVP2,2013-07-08 11:12:00,
2013-07-08 04:17:00,52.7,50.4,29.87,SSW,198,0.0,2.0,92,0.00,,,0.00,WUHU216DAVISVP2,2013-07-08 11:17:00,
2013-07-08 04:22:00,52.7,50.4,29.87,SSW,198,0.0,2.0,92,0.00,,,0.00,WUHU216DAVISVP2,2013-07-08 11:22:00,
2013-07-08 04:27:00,52.7,50.4,29.87,SSW,198,0.0,2.0,92,0.00,,,0.00,WUHU216DAVISVP2,2013-07-08 11:27:00,
2013-07-08 04:32:00,52.7,50.7,29.87,SSW,198,0.0,2.0,93,0.00,,,0.00,WUHU216DAVISVP2,2013-07-08 11:32:00,
2013-07-08 04:37:00,52.7,50.7,29.87,SSW,198,0.0,2.0,93,0.00,,,0.00,WUHU216DAVISVP2,2013-07-08 11:37:00,
2013-07-08 04:42:00,52.6,50.6,29.87,SSW,198,0.0,2.0,93,0.00,,,0.00,WUHU216DAVISVP2,2013-07-08 11:42:00,
2013-07-08 04:47:00,52.6,50.6,29.87,SSW,198,0.0,1.0,93,0.00,,,0.00,WUHU216DAVISVP2,2013-07-08 11:47:00,
2013-07-08 04:52:00,52.6,50.6,29.87,SSW,198,0.0,2.0,93,0.00,,,0.00,WUHU216DAVISVP2,2013-07-08 11:52:00,
2013-07-08 04:57:00,52.6,50.6,29.87,SSW,198,0.0,2.0,93,0.00,,,0.00,WUHU216DAVISVP2,2013-07-08 11:57:00,
2013-07-08 05:02:00,52.6,50.6,29.87,SSW,198,0.0,2.0,93,0.00,,,0.00,WUHU216DAVISVP2,2013-07-08 12:02:00,
2013-07-08 05:07:00,52.6,50.6,29.87,SSW,198,0.0,2.0,93,0.00,,,0.00,WUHU216DAVISVP2,2013-07-08 12:07:00,
2013-07-08 05:12:00,52.5,50.5,29.87,SSW,198,0.0,1.0,93,0.00,,,0.00,WUHU216DAVISVP2,2013-07-08 12:12:00,
2013-07-08 05:17:00,52.5,50.5,29.87,SSW,198,0.0,1.0,93,0.00,,,0.00,WUHU216DAVISVP2,2013-07-08 12:17:00,
2013-07-08 05:22:00,52.4,50.4,29.87,SSW,198,0.0,1.0,93,0.00,,,0.00,WUHU216DAVISVP2,2013-07-08 12:22:00,
2013-07-08 05:27:00,52.4,50.4,29.88,SSW,198,0.0,1.0,93,0.00,,,0.00,WUHU216DAVISVP2,2013-07-08 12:27:00,
2013-07-08 05:32:00,52.4,50.4,29.88,SSW,198,0.0,1.0,93,0.00,,,0.00,WUHU216DAVISVP2,2013-07-08 12:32:00,
2013-07-08 05:37:00,52.5,50.5,29.88,SSW,198,0.0,1.0,93,0.00,,,0.00,WUHU216DAVISVP2,2013-07-08 12:37:00,
2013-07-08 05:42:00,52.5,50.5,29.88,SSW,198,0.0,0.0,93,0.00,,,0.00,WUHU216DAVISVP2,2013-07-08 12:42:00,
2013-07-08 05:47:00,52.5,50.8,29.88,SSW,198,0.0,1.0,94,0.00,,,0.00,WUHU216DAVISVP2,2013-07-08 12:47:00,
2013-07-08 05:52:00,52.5,50.5,29.88,SSW,198,0.0,1.0,93,0.00,,,0.00,WUHU216DAVISVP2,2013-07-08 12:52:00,
2013-07-08 05:57:00,52.4,50.4,29.88,SSW,198,0.0,1.0,93,0.00,,,0.00,WUHU216DAVISVP2,2013-07-08 12:57:00,
2013-07-08 06:02:00,52.4,50.7,29.88,SSW,198,1.0,1.0,94,0.00,,,0.00,WUHU216DAVISVP2,2013-07-08 13:02:00,
2013-07-08 06:07:00,52.3,50.6,29.88,SSW,198,0.0,2.0,94,0.00,,,0.00,WUHU216DAVISVP2,2013-07-08 13:07:00,
2013-07-08 06:12:00,52.2,50.5,29.88,SSW,194,0.0,2.0,94,0.00,,,0.00,WUHU216DAVISVP2,2013-07-08 13:12:00,
2013-07-08 06:17:00,52.2,50.5,29.88,SSW,206,1.0,2.0,94,0.00,,,0.00,WUHU216DAVISVP2,2013-07-08 13:17:00,
2013-07-08 06:22:00,52.1,50.4,29.89,SW,215,0.0,3.0,94,0.00,,,0.00,WUHU216DAVISVP2,2013-07-08 13:22:00,
2013-07-08 06:27:00,52.1,50.4,29.89,SW,216,0.0,3.0,94,0.00,,,0.00,WUHU216DAVISVP2,2013-07-08 13:27:00,
2013-07-08 06:32:00,52.1,50.4,29.89,SW,216,0.0,3.0,94,0.00,,,0.00,WUHU216DAVISVP2,2013-07-08 13:32:00,
2013-07-08 06:37:00,52.1,50.4,29.89,SW,216,0.0,3.0,94,0.00,,,0.00,WUHU216DAVISVP2,2013-07-08 13:37:00,
2013-07-08 06:42:00,52.1,50.4,29.89,SW,216,0.0,2.0,94,0.00,,,0.00,WUHU216DAVISVP2,2013-07-08 13:42:00,
2013-07-08 06:47:00,52.1,50.4,29.90,SW,216,0.0,2.0,94,0.00,,,0.00,WUHU216DAVISVP2,2013-07-08 13:47:00,
2013-07-08 06:52:00,52.2,50.5,29.89,SW,216,0.0,0.0,94,0.00,,,0.00,WUHU216DAVISVP2,2013-07-08 13:52:00,
2013-07-08 06:57:00,52.3,50.6,29.90,SW,216,0.0,0.0,94,0.00,,,0.00,WUHU216DAVISVP2,2013-07-08 13:57:00,
2013-07-08 07:02:00,52.3,50.9,29.90,SW,216,0.0,0.0,95,0.00,,,0.00,WUHU216DAVISVP2,2013-07-08 14:02:00,
2013-07-08 07:07:00,52.4,51.0,29.90,SW,216,0.0,0.0,95,0.00,,,0.00,WUHU216DAVISVP2,2013-07-08 14:07:00,
2013-07-08 07:12:00,52.4,51.0,29.90,SW,216,0.0,0.0,95,0.00,,,0.00,WUHU216DAVISVP2,2013-07-08 14:12:00,
2013-07-08 07:17:00,52.4,50.7,29.90,SW,216,0.0,0.0,94,0.00,,,0.00,WUHU216DAVISVP2,2013-07-08 14:17:00,
2013-07-08 07:22:00,52.5,50.8,29.90,SW,216,0.0,0.0,94,0.00,,,0.00,WUHU216DAVISVP2,2013-07-08 14:22:00,
2013-07-08 07:27:00,52.6,50.9,29.90,SW,216,0.0,0.0,94,0.00,,,0.00,WUHU216DAVISVP2,2013-07-08 14:27:00,
2013-07-08 07:32:00,52.6,50.9,29.90,SW,216,0.0,0.0,94,0.00,,,0.00,WUHU216DAVISVP2,2013-07-08 14:32:00,
2013-07-08 07:37:00,52.6,50.9,29.90,SW,216,0.0,2.0,94,0.00,,,0.00,WUHU216DAVISVP2,2013-07-08 14:37:00,
2013-07-08 07:42:00,52.7,51.0,29.91,SW,216,0.0,2.0,94,0.00,,,0.00,WUHU216DAVISVP2,2013-07-08 14:42:00,
2013-07-08 07:47:00,52.8,51.1,29.91,SW,216,0.0,2.0,94,0.00,,,0.00,WUHU216DAVISVP2,2013-07-08 14:47:00,
2013-07-08 07:52:00,52.9,51.2,29.91,West,268,1.0,3.0,94,0.00,,,0.00,WUHU216DAVISVP2,2013-07-08 14:52:00,
2013-07-08 07:57:00,53.0,51.3,29.91,SW,234,0.0,3.0,94,0.00,,,0.00,WUHU216DAVISVP2,2013-07-08 14:57:00,
2013-07-08 08:02:00,53.1,51.1,29.91,SW,234,0.0,3.0,93,0.00,,,0.00,WUHU216DAVISVP2,2013-07-08 15:02:00,
2013-07-08 08:07:00,53.3,51.3,29.91,SW,234,0.0,3.0,93,0.00,,,0.00,WUHU216DAVISVP2,2013-07-08 15:07:00,
2013-07-08 08:12:00,53.4,51.4,29.91,SW,234,1.0,2.0,93,0.00,,,0.00,WUHU216DAVISVP2,2013-07-08 15:12:00,
2013-07-08 08:17:00,53.6,51.3,29.92,SW,236,0.0,2.0,92,0.00,,,0.00,WUHU216DAVISVP2,2013-07-08 15:17:00,
2013-07-08 08:22:00,53.7,51.4,29.92,WSW,237,2.0,2.0,92,0.00,,,0.00,WUHU216DAVISVP2,2013-07-08 15:22:00,
2013-07-08 08:27:00,53.8,51.5,29.92,WSW,238,0.0,3.0,92,0.00,,,0.00,WUHU216DAVISVP2,2013-07-08 15:27:00,
2013-07-08 08:32:00,53.9,51.6,29.92,WSW,238,0.0,3.0,92,0.00,,,0.00,WUHU216DAVISVP2,2013-07-08 15:32:00,
2013-07-08 08:37:00,54.2,51.9,29.92,WSW,238,0.0,3.0,92,0.00,,,0.00,WUHU216DAVISVP2,2013-07-08 15:37:00,
2013-07-08 08:42:00,54.4,51.8,29.92,WSW,238,0.0,2.0,91,0.00,,,0.00,WUHU216DAVISVP2,2013-07-08 15:42:00,
2013-07-08 08:47:00,54.7,52.1,29.92,SSW,207,0.0,2.0,91,0.00,,,0.00,WUHU216DAVISVP2,2013-07-08 15:47:00,
2013-07-08 08:52:00,55.1,52.2,29.92,SW,216,1.0,2.0,90,0.00,,,0.00,WUHU216DAVISVP2,2013-07-08 15:52:00,
2013-07-08 08:57:00,55.3,52.1,29.92,SSW,211,1.0,2.0,89,0.00,,,0.00,WUHU216DAVISVP2,2013-07-08 15:57:00,
2013-07-08 09:02:00,55.5,52.3,29.93,SSW,200,0.0,4.0,89,0.00,,,0.00,WUHU216DAVISVP2,2013-07-08 16:02:00,
2013-07-08 09:07:00,56.0,52.8,29.92,SSW,200,0.0,4.0,89,0.00,,,0.00,WUHU216DAVISVP2,2013-07-08 16:07:00,
2013-07-08 09:12:00,56.3,52.5,29.92,SSW,192,0.0,4.0,87,0.00,,,0.00,WUHU216DAVISVP2,2013-07-08 16:12:00,
2013-07-08 09:17:00,56.3,52.5,29.92,SSW,197,2.0,4.0,87,0.00,,,0.00,WUHU216DAVISVP2,2013-07-08 16:17:00,
2013-07-08 09:22:00,56.1,52.0,29.92,SSW,197,0.0,4.0,86,0.00,,,0.00,WUHU216DAVISVP2,2013-07-08 16:22:00,
2013-07-08 09:27:00,56.0,51.9,29.92,WNW,297,0.0,4.0,86,0.00,,,0.00,WUHU216DAVISVP2,2013-07-08 16:27:00,
2013-07-08 09:32:00,56.2,52.4,29.92,WNW,297,0.0,4.0,87,0.00,,,0.00,WUHU216DAVISVP2,2013-07-08 16:32:00,
2013-07-08 09:37:00,56.4,52.3,29.92,WSW,253,0.0,2.0,86,0.00,,,0.00,WUHU216DAVISVP2,2013-07-08 16:37:00,
2013-07-08 09:42:00,56.7,52.6,29.92,West,269,0.0,2.0,86,0.00,,,0.00,WUHU216DAVISVP2,2013-07-08 16:42:00,
2013-07-08 09:47:00,57.3,52.8,29.92,West,269,1.0,2.0,85,0.00,,,0.00,WUHU216DAVISVP2,2013-07-08 16:47:00,
2013-07-08 09:52:00,58.1,53.0,29.92,WNW,300,1.0,4.0,83,0.00,,,0.00,WUHU216DAVISVP2,2013-07-08 16:52:00,
2013-07-08 09:57:00,58.7,53.3,29.92,NW,314,0.0,4.0,82,0.00,,,0.00,WUHU216DAVISVP2,2013-07-08 16:57:00,
2013-07-08 10:02:00,59.2,53.7,29.92,WSW,244,2.0,4.0,82,0.00,,,0.00,WUHU216DAVISVP2,2013-07-08 17:02:00,
2013-07-08 10:07:00,59.7,53.6,29.92,WSW,247,3.0,4.0,80,0.00,,,0.00,WUHU216DAVISVP2,2013-07-08 17:07:00,
2013-07-08 10:12:00,60.3,54.2,29.92,SW,221,1.0,4.0,80,0.00,,,0.00,WUHU216DAVISVP2,2013-07-08 17:12:00,
2013-07-08 10:17:00,61.0,54.4,29.92,South,184,2.0,4.0,79,0.00,,,0.00,WUHU216DAVISVP2,2013-07-08 17:17:00,
2013-07-08 10:22:00,61.8,54.9,29.92,SSW,193,0.0,4.0,78,0.00,,,0.00,WUHU216DAVISVP2,2013-07-08 17:22:00,
2013-07-08 10:27:00,62.8,54.8,29.92,SW,227,1.0,4.0,75,0.00,,,0.00,WUHU216DAVISVP2,2013-07-08 17:27:00,
2013-07-08 10:32:00,63.5,54.7,29.92,SSW,207,2.0,4.0,73,0.00,,,0.00,WUHU216DAVISVP2,2013-07-08 17:32:00,
2013-07-08 10:37:00,64.1,55.3,29.92,SSW,213,5.0,5.0,73,0.00,,,0.00,WUHU216DAVISVP2,2013-07-08 17:37:00,
2013-07-08 10:42:00,64.7,55.5,29.92,SSW,211,3.0,5.0,72,0.00,,,0.00,WUHU216DAVISVP2,2013-07-08 17:42:00,
2013-07-08 10:48:00,65.5,56.0,29.93,SW,214,2.0,5.0,71,0.00,,,0.00,WUHU216DAVISVP2,2013-07-08 17:48:00,
2013-07-08 10:53:00,66.2,55.9,29.93,SW,225,4.0,5.0,69,0.00,,,0.00,WUHU216DAVISVP2,2013-07-08 17:53:00,
2013-07-08 10:58:00,66.6,55.9,29.93,SW,215,2.0,6.0,68,0.00,,,0.00,WUHU216DAVISVP2,2013-07-08 17:58:00,
2013-07-08 11:03:00,66.9,55.8,29.93,SSW,198,0.0,6.0,67,0.00,,,0.00,WUHU216DAVISVP2,2013-07-08 18:03:00,
2013-07-08 11:08:00,67.4,56.2,29.93,WSW,237,2.0,6.0,67,0.00,,,0.00,WUHU216DAVISVP2,2013-07-08 18:08:00,
2013-07-08 11:14:00,67.5,55.9,29.93,SSE,165,1.0,6.0,66,0.00,,,0.00,WUHU216DAVISVP2,2013-07-08 18:14:00,
2013-07-08 11:19:00,67.8,56.2,29.93,SSW,205,4.0,5.0,66,0.00,,,0.00,WUHU216DAVISVP2,2013-07-08 18:19:00,
2013-07-08 11:24:00,68.0,56.0,29.93,SW,218,1.0,5.0,65,0.00,,,0.00,WUHU216DAVISVP2,2013-07-08 18:24:00,
2013-07-08 11:29:00,68.4,55.7,29.93,SSE,165,0.0,5.0,64,0.00,,,0.00,WUHU216DAVISVP2,2013-07-08 18:29:00,
2013-07-08 11:34:00,68.5,55.4,29.93,South,173,3.0,6.0,63,0.00,,,0.00,WUHU216DAVISVP2,2013-07-08 18:34:00,
2013-07-08 11:40:00,67.9,55.3,29.93,South,179,4.0,6.0,64,0.00,,,0.00,WUHU216DAVISVP2,2013-07-08 18:40:00,
2013-07-08 11:45:00,67.7,55.1,29.93,SSW,195,2.0,6.0,64,0.00,,,0.00,WUHU216DAVISVP2,2013-07-08 18:45:00,
2013-07-08 11:50:00,68.0,55.5,29.93,South,179,4.0,5.0,64,0.00,,,0.00,WUHU216DAVISVP2,2013-07-08 18:50:00,
2013-07-08 11:55:00,68.3,55.8,29.93,South,184,4.0,5.0,64,0.00,,,0.00,WUHU216DAVISVP2,2013-07-08 18:55:00,
2013-07-08 12:00:00,68.7,56.2,29.93,WNW,298,4.0,9.0,64,0.00,,,0.00,WUHU216DAVISVP2,2013-07-08 19:00:00,
2013-07-08 12:06:00,69.0,56.1,29.93,SSE,158,2.0,9.0,63,0.00,,,0.00,WUHU216DAVISVP2,2013-07-08 19:06:00,
2013-07-08 12:12:00,69.6,56.2,29.93,South,175,4.0,9.0,62,0.00,,,0.00,WUHU216DAVISVP2,2013-07-08 19:12:00,
2013-07-08 12:17:00,69.4,56.4,29.93,SW,223,2.0,9.0,63,0.00,,,0.00,WUHU216DAVISVP2,2013-07-08 19:17:00,
2013-07-08 12:23:00,69.4,55.5,29.93,South,188,3.0,6.0,61,0.00,,,0.00,WUHU216DAVISVP2,2013-07-08 19:23:00,
2013-07-08 12:28:00,69.0,55.9,29.93,South,186,3.0,6.0,63,0.00,,,0.00,WUHU216DAVISVP2,2013-07-08 19:28:00,
2013-07-08 12:34:00,69.1,55.5,29.93,SSE,157,1.0,6.0,62,0.00,,,0.00,WUHU216DAVISVP2,2013-07-08 19:34:00,
2013-07-08 12:40:00,69.4,55.8,29.93,WSW,238,2.0,5.0,62,0.00,,,0.00,WUHU216DAVISVP2,2013-07-08 19:40:00,
2013-07-08 12:46:00,69.7,55.6,29.93,SSW,198,3.0,8.0,61,0.00,,,0.00,WUHU216DAVISVP2,2013-07-08 19:46:00,
2013-07-08 12:51:00,70.6,56.2,29.93,SSE,167,1.0,8.0,60,0.00,,,0.00,WUHU216DAVISVP2,2013-07-08 19:51:00,
2013-07-08 12:56:00,71.3,56.4,29.93,South,172,3.0,8.0,59,0.00,,,0.00,WUHU216DAVISVP2,2013-07-08 19:56:00,
2013-07-08 13:01:00,71.8,56.9,29.93,South,181,3.0,8.0,59,0.00,,,0.00,WUHU216DAVISVP2,2013-07-08 20:01:00,
2013-07-08 13:06:00,72.4,56.5,29.93,South,171,2.0,7.0,57,0.00,,,0.00,WUHU216DAVISVP2,2013-07-08 20:06:00,
2013-07-08 13:11:00,72.6,55.1,29.93,WSW,238,3.0,7.0,54,0.00,,,0.00,WUHU216DAVISVP2,2013-07-08 20:11:00,
2013-07-08 13:16:00,72.6,55.0,29.92,SSW,201,0.0,6.0,54,0.00,,,0.00,WUHU216DAVISVP2,2013-07-08 20:16:00,
2013-07-08 13:21:00,73.0,55.4,29.93,SSW,194,2.0,6.0,54,0.00,,,0.00,WUHU216DAVISVP2,2013-07-08 20:21:00,
2013-07-08 13:26:00,73.6,55.4,29.92,South,183,4.0,6.0,53,0.00,,,0.00,WUHU216DAVISVP2,2013-07-08 20:26:00,
2013-07-08 13:31:00,74.1,54.4,29.92,SSW,196,2.0,7.0,50,0.00,,,0.00,WUHU216DAVISVP2,2013-07-08 20:31:00,
2013-07-08 13:36:00,74.9,53.9,29.92,SSW,198,3.0,7.0,48,0.00,,,0.00,WUHU216DAVISVP2,2013-07-08 20:36:00,
2013-07-08 13:42:00,74.9,53.9,29.92,SSW,203,1.0,7.0,48,0.00,,,0.00,WUHU216DAVISVP2,2013-07-08 20:42:00,
2013-07-08 13:47:00,74.8,53.2,29.92,South,177,3.0,7.0,47,0.00,,,0.00,WUHU216DAVISVP2,2013-07-08 20:47:00,
2013-07-08 13:53:00,74.7,53.1,29.92,SW,222,2.0,7.0,47,0.00,,,0.00,WUHU216DAVISVP2,2013-07-08 20:53:00,
2013-07-08 13:58:00,74.6,53.0,29.92,South,178,2.0,7.0,47,0.00,,,0.00,WUHU216DAVISVP2,2013-07-08 20:58:00,
2013-07-08 14:03:00,74.5,54.1,29.92,SW,216,4.0,7.0,49,0.00,,,0.00,WUHU216DAVISVP2,2013-07-08 21:03:00,
2013-07-08 14:09:00,74.4,53.5,29.92,South,186,4.0,7.0,48,0.00,,,0.00,WUHU216DAVISVP2,2013-07-08 21:09:00,
2013-07-08 14:14:00,74.0,54.3,29.92,South,189,1.0,8.0,50,0.00,,,0.00,WUHU216DAVISVP2,2013-07-08 21:14:00,
2013-07-08 14:20:00,73.7,54.0,29.93,SSE,159,3.0,8.0,50,0.00,,,0.00,WUHU216DAVISVP2,2013-07-08 21:20:00,
2013-07-08 14:25:00,73.1,54.0,29.92,SSE,162,4.0,8.0,51,0.00,,,0.00,WUHU216DAVISVP2,2013-07-08 21:25:00,
2013-07-08 14:30:00,73.1,52.9,29.93,SSW,198,4.0,8.0,49,0.00,,,0.00,WUHU216DAVISVP2,2013-07-08 21:30:00,
2013-07-08 14:36:00,73.1,52.9,29.93,SSW,207,5.0,7.0,49,0.00,,,0.00,WUHU216DAVISVP2,2013-07-08 21:36:00,
2013-07-08 14:41:00,72.8,53.1,29.92,SSE,162,4.0,7.0,50,0.00,,,0.00,WUHU216DAVISVP2,2013-07-08 21:41:00,
2013-07-08 14:46:00,72.8,53.7,29.92,SSW,212,3.0,7.0,51,0.00,,,0.00,WUHU216DAVISVP2,2013-07-08 21:46:00,
2013-07-08 14:52:00,72.6,53.5,29.92,SSW,199,4.0,7.0,51,0.00,,,0.00,WUHU216DAVISVP2,2013-07-08 21:52:00,
2013-07-08 14:57:00,72.5,54.5,29.93,SSW,206,0.0,7.0,53,0.00,,,0.00,WUHU216DAVISVP2,2013-07-08 21:57:00,
2013-07-08 15:02:00,73.3,54.7,29.93,WSW,238,4.0,6.0,52,0.00,,,0.00,WUHU216DAVISVP2,2013-07-08 22:02:00,
2013-07-08 15:07:00,73.5,52.6,29.93,South,186,4.0,6.0,48,0.00,,,0.00,WUHU216DAVISVP2,2013-07-08 22:07:00,
2013-07-08 15:12:00,73.1,54.0,29.92,South,182,4.0,6.0,51,0.00,,,0.00,WUHU216DAVISVP2,2013-07-08 22:12:00,
2013-07-08 15:17:00,72.9,53.2,29.92,SSW,192,1.0,6.0,50,0.00,,,0.00,WUHU216DAVISVP2,2013-07-08 22:17:00,
2013-07-08 15:22:00,73.3,53.6,29.92,SSE,157,2.0,6.0,50,0.00,,,0.00,WUHU216DAVISVP2,2013-07-08 22:22:00,
2013-07-08 15:27:00,73.6,53.9,29.92,South,174,4.0,6.0,50,0.00,,,0.00,WUHU216DAVISVP2,2013-07-08 22:27:00,
2013-07-08 15:33:00,73.2,53.5,29.92,SSW,209,2.0,6.0,50,0.00,,,0.00,WUHU216DAVISVP2,2013-07-08 22:33:00,
2013-07-08 15:38:00,73.3,54.2,29.92,SSW,213,4.0,6.0,51,0.00,,,0.00,WUHU216DAVISVP2,2013-07-08 22:38:00,
2013-07-08 15:43:00,73.1,52.9,29.92,SSW,198,1.0,6.0,49,0.00,,,0.00,WUHU216DAVISVP2,2013-07-08 22:43:00,
2013-07-08 15:48:00,73.5,53.2,29.92,South,174,1.0,7.0,49,0.00,,,0.00,WUHU216DAVISVP2,2013-07-08 22:48:00,
2013-07-08 15:53:00,73.7,53.4,29.92,South,180,2.0,7.0,49,0.00,,,0.00,WUHU216DAVISVP2,2013-07-08 22:53:00,
2013-07-08 15:58:00,74.5,53.5,29.92,SSE,168,2.0,7.0,48,0.00,,,0.00,WUHU216DAVISVP2,2013-07-08 22:58:00,
2013-07-08 16:04:00,74.5,54.6,29.92,SSE,148,3.0,7.0,50,0.00,,,0.00,WUHU216DAVISVP2,2013-07-08 23:04:00,
2013-07-08 16:09:00,74.8,54.4,29.92,SE,130,1.0,7.0,49,0.00,,,0.00,WUHU216DAVISVP2,2013-07-08 23:09:00,
2013-07-08 16:15:00,76.2,54.5,29.91,SSE,153,2.0,7.0,47,0.00,,,0.00,WUHU216DAVISVP2,2013-07-08 23:15:00,
2013-07-08 16:20:00,77.1,54.1,29.91,SE,137,2.0,7.0,45,0.00,,,0.00,WUHU216DAVISVP2,2013-07-08 23:20:00,
2013-07-08 16:25:00,77.8,54.1,29.91,SSE,159,0.0,7.0,44,0.00,,,0.00,WUHU216DAVISVP2,2013-07-08 23:25:00,
2013-07-08 16:31:00,78.7,54.3,29.91,SW,228,4.0,6.0,43,0.00,,,0.00,WUHU216DAVISVP2,2013-07-08 23:31:00,
2013-07-08 16:36:00,76.7,55.0,29.91,SE,144,2.0,7.0,47,0.00,,,0.00,WUHU216DAVISVP2,2013-07-08 23:36:00,
2013-07-08 16:42:00,75.8,55.3,29.91,SSE,153,3.0,7.0,49,0.00,,,0.00,WUHU216DAVISVP2,2013-07-08 23:42:00,
2013-07-08 16:47:00,75.3,54.8,29.91,SE,135,2.0,7.0,49,0.00,,,0.00,WUHU216DAVISVP2,2013-07-08 23:47:00,
2013-07-08 16:52:00,74.6,54.8,29.91,South,184,1.0,7.0,50,0.00,,,0.00,WUHU216DAVISVP2,2013-07-08 23:52:00,
2013-07-08 16:57:00,74.3,55.6,29.91,South,172,4.0,8.0,52,0.00,,,0.00,WUHU216DAVISVP2,2013-07-08 23:57:00,
2013-07-08 17:03:00,73.7,55.6,29.91,South,173,4.0,8.0,53,0.00,,,0.00,WUHU216DAVISVP2,2013-07-09 00:03:00,
2013-07-08 17:08:00,72.5,55.6,29.91,SSE,157,2.0,8.0,55,0.00,,,0.00,WUHU216DAVISVP2,2013-07-09 00:08:00,
2013-07-08 17:14:00,72.1,55.7,29.91,SSW,209,3.0,6.0,56,0.00,,,0.00,WUHU216DAVISVP2,2013-07-09 00:14:00,
2013-07-08 17:20:00,72.9,56.4,29.90,East,97,1.0,6.0,56,0.00,,,0.00,WUHU216DAVISVP2,2013-07-09 00:20:00,
2013-07-08 17:25:00,73.9,55.7,29.91,South,170,1.0,6.0,53,0.00,,,0.00,WUHU216DAVISVP2,2013-07-09 00:25:00,
2013-07-08 17:30:00,74.2,55.0,29.90,South,171,2.0,5.0,51,0.00,,,0.00,WUHU216DAVISVP2,2013-07-09 00:30:00,
2013-07-08 17:35:00,73.6,55.9,29.90,South,190,3.0,6.0,54,0.00,,,0.00,WUHU216DAVISVP2,2013-07-09 00:35:00,
2013-07-08 17:40:00,72.8,55.3,29.90,South,175,3.0,6.0,54,0.00,,,0.00,WUHU216DAVISVP2,2013-07-09 00:40:00,
2013-07-08 17:46:00,72.5,56.1,29.90,SSE,151,2.0,6.0,56,0.00,,,0.00,WUHU216DAVISVP2,2013-07-09 00:46:00,
2013-07-08 17:51:00,73.6,56.1,29.90,SW,232,5.0,6.0,54,0.00,,,0.00,WUHU216DAVISVP2,2013-07-09 00:51:00,
2013-07-08 17:56:00,73.7,55.6,29.90,SSW,199,2.0,5.0,53,0.00,,,0.00,WUHU216DAVISVP2,2013-07-09 00:56:00,
2013-07-08 18:01:00,73.8,55.7,29.90,SSE,153,2.0,7.0,53,0.00,,,0.00,WUHU216DAVISVP2,2013-07-09 01:01:00,
2013-07-08 18:06:00,72.9,55.9,29.89,SSW,212,3.0,7.0,55,0.00,,,0.00,WUHU216DAVISVP2,2013-07-09 01:06:00,
2013-07-08 18:11:00,72.8,55.2,29.89,South,171,2.0,7.0,54,0.00,,,0.00,WUHU216DAVISVP2,2013-07-09 01:11:00,
2013-07-08 18:17:00,72.5,56.1,29.90,South,173,2.0,7.0,56,0.00,,,0.00,WUHU216DAVISVP2,2013-07-09 01:17:00,
2013-07-08 18:22:00,73.0,56.0,29.90,SSE,148,0.0,5.0,55,0.00,,,0.00,WUHU216DAVISVP2,2013-07-09 01:22:00,
2013-07-08 18:27:00,73.2,56.2,29.90,SSW,205,4.0,5.0,55,0.00,,,0.00,WUHU216DAVISVP2,2013-07-09 01:27:00,
2013-07-08 18:32:00,72.7,56.1,29.90,South,189,4.0,5.0,56,0.00,,,0.00,WUHU216DAVISVP2,2013-07-09 01:32:00,
2013-07-08 18:37:00,71.5,55.5,29.90,SSW,204,2.0,5.0,57,0.00,,,0.00,WUHU216DAVISVP2,2013-07-09 01:37:00,
2013-07-08 18:42:00,70.9,55.6,29.90,SSE,168,2.0,6.0,58,0.00,,,0.00,WUHU216DAVISVP2,2013-07-09 01:42:00,
2013-07-08 18:47:00,70.2,56.3,29.90,SSE,165,1.0,6.0,61,0.00,,,0.00,WUHU216DAVISVP2,2013-07-09 01:47:00,
2013-07-08 18:53:00,69.9,55.6,29.90,SSW,193,4.0,7.0,60,0.00,,,0.00,WUHU216DAVISVP2,2013-07-09 01:53:00,
2013-07-08 18:58:00,69.1,56.0,29.90,South,180,2.0,7.0,63,0.00,,,0.00,WUHU216DAVISVP2,2013-07-09 01:58:00,
2013-07-08 19:03:00,68.5,55.6,29.90,SSE,157,1.0,7.0,63,0.00,,,0.00,WUHU216DAVISVP2,2013-07-09 02:03:00,
2013-07-08 19:08:00,68.1,56.1,29.91,South,188,3.0,6.0,65,0.00,,,0.00,WUHU216DAVISVP2,2013-07-09 02:08:00,
2013-07-08 19:14:00,67.7,55.7,29.91,South,186,2.0,6.0,65,0.00,,,0.00,WUHU216DAVISVP2,2013-07-09 02:14:00,
2013-07-08 19:19:00,67.4,55.6,29.90,South,188,1.0,6.0,66,0.00,,,0.00,WUHU216DAVISVP2,2013-07-09 02:19:00,
2013-07-08 19:25:00,66.9,55.6,29.91,South,181,2.0,6.0,67,0.00,,,0.00,WUHU216DAVISVP2,2013-07-09 02:25:00,
2013-07-08 19:30:00,66.1,55.4,29.91,SSW,205,3.0,6.0,68,0.00,,,0.00,WUHU216DAVISVP2,2013-07-09 02:30:00,
2013-07-08 19:35:00,65.4,55.1,29.91,South,186,3.0,5.0,69,0.00,,,0.00,WUHU216DAVISVP2,2013-07-09 02:35:00,
2013-07-08 19:40:00,64.7,55.2,29.91,SSE,152,1.0,5.0,71,0.00,,,0.00,WUHU216DAVISVP2,2013-07-09 02:40:00,
2013-07-08 19:45:00,64.3,55.2,29.91,South,175,1.0,5.0,72,0.00,,,0.00,WUHU216DAVISVP2,2013-07-09 02:45:00,
2013-07-08 19:50:00,63.8,54.7,29.91,SE,138,0.0,5.0,72,0.00,,,0.00,WUHU216DAVISVP2,2013-07-09 02:50:00,
2013-07-08 19:56:00,63.3,54.6,29.91,South,176,2.0,5.0,73,0.00,,,0.00,WUHU216DAVISVP2,2013-07-09 02:56:00,
2013-07-08 20:01:00,62.9,54.6,29.91,SSE,166,1.0,5.0,74,0.00,,,0.00,WUHU216DAVISVP2,2013-07-09 03:01:00,
2013-07-08 20:06:00,62.2,54.2,29.91,South,184,3.0,5.0,75,0.00,,,0.00,WUHU216DAVISVP2,2013-07-09 03:06:00,
2013-07-08 20:11:00,61.6,54.0,29.92,South,184,0.0,4.0,76,0.00,,,0.00,WUHU216DAVISVP2,2013-07-09 03:11:00,
2013-07-08 20:17:00,61.0,54.2,29.92,SSE,164,2.0,4.0,78,0.00,,,0.00,WUHU216DAVISVP2,2013-07-09 03:17:00,
2013-07-08 20:22:00,60.3,53.8,29.92,SSE,166,2.0,4.0,79,0.00,,,0.00,WUHU216DAVISVP2,2013-07-09 03:22:00,
2013-07-08 20:27:00,59.6,53.5,29.92,SSW,199,1.0,4.0,80,0.00,,,0.00,WUHU216DAVISVP2,2013-07-09 03:27:00,
2013-07-08 20:32:00,59.1,53.3,29.92,SSW,192,1.0,4.0,81,0.00,,,0.00,WUHU216DAVISVP2,2013-07-09 03:32:00,
2013-07-08 20:37:00,58.7,53.3,29.92,SSE,158,1.0,3.0,82,0.00,,,0.00,WUHU216DAVISVP2,2013-07-09 03:37:00,
2013-07-08 20:43:00,58.2,53.1,29.92,SSW,198,1.0,3.0,83,0.00,,,0.00,WUHU216DAVISVP2,2013-07-09 03:43:00,
2013-07-08 20:48:00,57.7,52.9,29.92,South,174,0.0,3.0,84,0.00,,,0.00,WUHU216DAVISVP2,2013-07-09 03:48:00,
2013-07-08 20:53:00,57.3,52.8,29.92,South,182,2.0,3.0,85,0.00,,,0.00,WUHU216DAVISVP2,2013-07-09 03:53:00,
2013-07-08 20:59:00,57.0,52.8,29.93,SW,219,1.0,3.0,86,0.00,,,0.00,WUHU216DAVISVP2,2013-07-09 03:59:00,
2013-07-08 21:01:00,56.9,52.7,29.93,South,183,0.0,3.0,86,0.00,,,0.00,WUHU216DAVISVP2,2013-07-09 04:01:00,
2013-07-08 21:02:00,56.8,52.7,29.93,SSW,192,0.0,3.0,86,0.00,,,0.00,WUHU216DAVISVP2,2013-07-09 04:02:00,
2013-07-08 21:07:00,56.6,52.8,29.93,SSW,192,1.0,2.0,87,0.00,,,0.00,WUHU216DAVISVP2,2013-07-09 04:07:00,
2013-07-08 21:12:00,56.4,52.6,29.93,SSW,192,1.0,2.0,87,0.00,,,0.00,WUHU216DAVISVP2,2013-07-09 04:12:00,
2013-07-08 21:17:00,56.3,52.5,29.93,SSW,192,0.0,2.0,87,0.00,,,0.00,WUHU216DAVISVP2,2013-07-09 04:17:00,
2013-07-08 21:22:00,56.1,52.6,29.93,SSW,192,0.0,2.0,88,0.00,,,0.00,WUHU216DAVISVP2,2013-07-09 04:22:00,
2013-07-08 21:27:00,56.0,52.5,29.93,SSW,192,0.0,2.0,88,0.00,,,0.00,WUHU216DAVISVP2,2013-07-09 04:27:00,
2013-07-08 21:32:00,55.8,52.3,29.94,SSW,192,1.0,2.0,88,0.00,,,0.00,WUHU216DAVISVP2,2013-07-09 04:32:00,
2013-07-08 21:37:00,55.6,52.4,29.94,SSW,192,0.0,1.0,89,0.00,,,0.00,WUHU216DAVISVP2,2013-07-09 04:37:00,
2013-07-08 21:42:00,55.4,52.2,29.94,SSW,192,0.0,1.0,89,0.00,,,0.00,WUHU216DAVISVP2,2013-07-09 04:42:00,
2013-07-08 21:47:00,55.1,51.9,29.94,SSW,192,0.0,1.0,89,0.00,,,0.00,WUHU216DAVISVP2,2013-07-09 04:47:00,
2013-07-08 21:52:00,55.0,52.1,29.94,SSW,192,0.0,1.0,90,0.00,,,0.00,WUHU216DAVISVP2,2013-07-09 04:52:00,
2013-07-08 21:57:00,54.8,51.9,29.94,SSW,192,0.0,2.0,90,0.00,,,0.00,WUHU216DAVISVP2,2013-07-09 04:57:00,
2013-07-08 22:02:00,54.6,52.0,29.94,SSW,192,1.0,2.0,91,0.00,,,0.00,WUHU216DAVISVP2,2013-07-09 05:02:00,
2013-07-08 22:07:00,54.4,51.8,29.94,SSW,192,0.0,2.0,91,0.00,,,0.00,WUHU216DAVISVP2,2013-07-09 05:07:00,
2013-07-08 22:12:00,54.2,51.6,29.95,SSW,192,0.0,2.0,91,0.00,,,0.00,WUHU216DAVISVP2,2013-07-09 05:12:00,
2013-07-08 22:17:00,54.1,51.5,29.95,SSW,192,0.0,2.0,91,0.00,,,0.00,WUHU216DAVISVP2,2013-07-09 05:17:00,
2013-07-08 22:22:00,54.0,51.4,29.95,SSW,192,0.0,1.0,91,0.00,,,0.00,WUHU216DAVISVP2,2013-07-09 05:22:00,
2013-07-08 22:27:00,53.8,51.5,29.95,SSW,192,0.0,1.0,92,0.00,,,0.00,WUHU216DAVISVP2,2013-07-09 05:27:00,
2013-07-08 22:32:00,53.7,51.4,29.95,SSW,192,0.0,0.0,92,0.00,,,0.00,WUHU216DAVISVP2,2013-07-09 05:32:00,
2013-07-08 22:37:00,53.6,51.3,29.95,SSW,192,0.0,0.0,92,0.00,,,0.00,WUHU216DAVISVP2,2013-07-09 05:37:00,
2013-07-08 22:42:00,53.5,51.2,29.95,SSW,192,0.0,0.0,92,0.00,,,0.00,WUHU216DAVISVP2,2013-07-09 05:42:00,
2013-07-08 22:47:00,53.3,51.0,29.95,SSW,192,0.0,0.0,92,0.00,,,0.00,WUHU216DAVISVP2,2013-07-09 05:47:00,
2013-07-08 22:52:00,53.2,50.9,29.95,SSW,192,0.0,0.0,92,0.00,,,0.00,WUHU216DAVISVP2,2013-07-09 05:52:00,
2013-07-08 22:57:00,53.1,51.1,29.95,SSW,192,0.0,0.0,93,0.00,,,0.00,WUHU216DAVISVP2,2013-07-09 05:57:00,
2013-07-08 23:02:00,53.0,51.0,29.95,SSW,192,0.0,0.0,93,0.00,,,0.00,WUHU216DAVISVP2,2013-07-09 06:02:00,
2013-07-08 23:07:00,52.9,50.9,29.95,SSW,192,0.0,0.0,93,0.00,,,0.00,WUHU216DAVISVP2,2013-07-09 06:07:00,
2013-07-08 23:12:00,52.8,50.8,29.95,SSW,192,0.0,0.0,93,0.00,,,0.00,WUHU216DAVISVP2,2013-07-09 06:12:00,
2013-07-08 23:17:00,52.7,50.7,29.95,SSW,192,0.0,0.0,93,0.00,,,0.00,WUHU216DAVISVP2,2013-07-09 06:17:00,
2013-07-08 23:22:00,52.5,50.5,29.95,SSW,192,0.0,0.0,93,0.00,,,0.00,WUHU216DAVISVP2,2013-07-09 06:22:00,
2013-07-08 23:27:00,52.4,50.4,29.95,SSW,192,0.0,0.0,93,0.00,,,0.00,WUHU216DAVISVP2,2013-07-09 06:27:00,
2013-07-08 23:32:00,52.3,50.3,29.95,SSW,192,0.0,0.0,93,0.00,,,0.00,WUHU216DAVISVP2,2013-07-09 06:32:00,
2013-07-08 23:37:00,52.3,50.3,29.95,SSW,192,0.0,0.0,93,0.00,,,0.00,WUHU216DAVISVP2,2013-07-09 06:37:00,
2013-07-08 23:42:00,52.2,50.2,29.95,SSW,192,0.0,0.0,93,0.00,,,0.00,WUHU216DAVISVP2,2013-07-09 06:42:00,
2013-07-08 23:47:00,52.1,50.1,29.95,SSW,192,0.0,0.0,93,0.00,,,0.00,WUHU216DAVISVP2,2013-07-09 06:47:00,
2013-07-08 23:52:00,52.1,50.1,29.95,SSW,192,0.0,0.0,93,0.00,,,0.00,WUHU216DAVISVP2,2013-07-09 06:52:00,
2013-07-08 23:57:00,51.9,49.9,29.95,SSW,192,0.0,0.0,93,0.00,,,0.00,WUHU216DAVISVP2,2013-07-09 06:57:00,